Location: Unspecified
(31.2700°S, 149.1900°E)
Time: 22:36:29
(UTC+00:00)

Daily predictions for brighter satellites

Satellite Brightness Start Highest point End
(mag) Time Altitude Azimuth Time Altitude Azimuth Time Altitude Azimuth
CZ-3 Stage 3 4.3 17:09:23 57° E 17:09:23 57° E 17:28:28 10° E
CZ-3A R/B 4.4 17:45:45 45° NNE 17:45:45 45° NNE 18:04:14 10° ENE
USA 215 4.1 17:47:05 10° SE 17:52:21 45° E 17:52:21 45° E
CENTAUR R/B 3.5 17:54:50 51° NNE 17:56:41 60° ENE 18:04:18 10° SE
SL-16 R/B 4.0 18:15:22 10° SE 18:21:01 34° E 18:26:35 10° NNE
Hubble Space Telescope 3.0 18:48:35 17° NNE 18:48:35 17° NNE 18:49:52 10° NE
Cosmos 1513 Rocket 4.4 18:45:04 10° N 18:51:30 87° W 18:57:58 10° S
Cosmos 2227 Rocket 4.5 18:57:45 10° S 18:57:45 10° S 18:57:49 10° S
Cosmos 2237 Rocket 2.3 18:57:07 55° NW 18:57:07 55° NW 19:02:02 10° N
IUS R/B (1) 3.7 18:57:01 34° N 18:57:54 39° NNE 19:06:33 10° E
H-2A R/B 4.3 18:21:30 10° WNW 18:58:34 47° N 19:03:43 10° E
IRS-1D 3.4 18:56:55 10° N 19:01:28 67° NW 19:01:28 67° NW
CZ-3 R/B 2.5 18:56:33 33° W 19:03:28 75° N 19:09:17 10° E
Cosmos 1980 4.2 19:05:34 40° NW 19:05:34 40° NW 19:09:50 10° N
Okean 1-7 Rocket 3.4 19:05:44 84° WNW 19:05:44 84° WNW 19:10:10 10° N
SL-24 R/B - RUBIN 2 4.3 19:00:38 10° NNW 19:06:40 89° ENE 19:13:13 10° SSE
BlueWalker 3 4.2 19:15:12 13° NNW 19:15:12 13° NNW 19:15:48 10° N
SL-16 R/B 3.2 19:08:45 12° S 19:13:43 45° ESE 19:19:08 10° NE
CZ-4 R/B 3.7 19:13:23 10° N 19:18:07 73° WNW 19:19:52 38° SSW
SeaSat 1 3.9 19:14:14 10° SE 19:18:50 39° ENE 19:23:23 10° N
Meteor 1-28 Rocket 4.3 19:16:27 10° SSE 19:19:33 38° E 19:22:36 10° N
Nadezhda 4 Rocket 4.4 19:13:44 10° S 19:19:53 64° E 19:25:55 10° NNE
Meteor 2-10 4.3 19:19:39 39° SW 19:21:13 50° W 19:26:42 10° NNW
Meteor 1-5 Rocket 4.4 19:23:37 38° SW 19:25:03 46° W 19:30:25 10° NNW
Cosmos 1076 Rocket 3.3 19:23:06 30° SSW 19:25:11 79° W 19:29:26 10° N
Cosmos 1825 Rocket 3.5 19:25:20 49° WSW 19:25:56 54° W 19:30:10 10° N
Cosmos 1464 Rocket 3.9 19:20:28 10° NNW 19:26:37 66° W 19:32:47 10° S
Cosmos 2219 3.2 19:22:38 10° NNW 19:28:17 60° WSW 19:34:01 10° SSE
OAO 2 Rocket 3.5 19:29:53 38° SW 19:31:37 60° S 19:36:31 10° E
Cosmos 2263 Rocket 3.4 19:34:16 23° SW 19:34:16 23° SW 19:37:21 10° S
CZ-4C R/B 3.4 19:30:04 10° S 19:34:08 25° SE 19:37:32 10° ENE
Cosmos 1766 2.6 19:34:37 60° WSW 19:34:56 66° W 19:38:06 10° N
USA 215 3.7 19:30:11 10° SSE 19:36:14 40° SW 19:39:45 23° W
Cosmos 2058 Rocket 3.0 19:32:01 10° NNW 19:36:25 64° W 19:40:50 10° S
MOS 1 Rocket 4.4 19:34:57 10° NNW 19:39:29 28° W 19:40:11 27° W
OAO 3 Rocket 3.5 19:39:17 30° W 19:41:22 55° NNW 19:46:05 10° NE
SMAP 3.0 19:37:24 10° NNE 19:42:04 88° E 19:46:48 10° SSW
Cosmos 44 Rocket 4.0 19:41:53 11° SSW 19:46:18 50° ESE 19:50:59 10° NE
USA 305 1.9 19:45:59 47° W 19:46:31 57° SW 19:50:11 10° SE
Cosmos 1844 Rocket 3.1 19:40:54 10° N 19:46:31 69° ENE 19:52:12 10° SSE
CENTAUR R/B 3.7 19:42:14 17° WNW 19:47:34 30° SW 19:53:55 10° S
USA 276 2.1 19:47:21 14° NW 19:49:32 58° NE 19:51:59 10° SE
Cosmos 1428 Rocket 4.5 19:44:40 10° S 19:51:02 78° W 19:57:16 10° N
Aurora 2 Rocket 4.4 19:49:47 10° NW 19:53:38 31° NNE 19:58:40 10° ENE
Lacrosse 5 rocket 1.5 19:56:17 27° WSW 19:56:56 30° SW 19:59:52 10° SSE
Meteor 2-6 Rocket 4.2 19:51:31 10° NNW 19:57:06 64° W 20:02:56 10° S
Cosmos 1842 4.1 19:55:03 10° NW 19:56:46 21° WNW 19:56:46 21° WNW
CBERS-1 4.0 19:53:14 10° N 19:58:21 78° WNW 20:03:32 10° SSW
Landsat 7 4.3 19:55:59 10° NNW 20:00:18 38° W 20:04:41 10° SSW
Cosmos 1867 3.9 19:56:43 17° SW 20:00:30 44° WNW 20:05:35 10° N
Cosmos 2082 4.2 19:55:41 10° NW 20:00:54 36° WSW 20:06:11 10° S
Cosmos 1953 Rocket 4.1 19:57:09 10° SSW 20:01:11 38° W 20:05:13 10° NNW
CZ-3 Stage 3 3.5 20:00:12 13° NW 20:01:35 20° N 20:04:36 10° NE
SL-16 R/B 3.2 19:58:59 10° S 20:04:22 31° WSW 20:09:42 10° NW
Meteor 1-19 Rocket 4.2 20:00:37 10° N 20:06:01 89° E 20:11:35 10° S
Cosmos-2242 4.3 20:03:51 10° WNW 20:06:53 19° WSW 20:09:56 10° SSW
SKYMED 2 3.6 20:03:16 10° SSE 20:07:42 90° NE 20:12:03 10° NNW
Cosmos 489 Rocket 4.5 20:02:33 10° NNW 20:08:45 67° WSW 20:15:04 10° S
SPOT 1/Viking Rocket 3.5 20:03:48 10° N 20:09:00 80° WNW 20:14:16 10° SSW
Meteor 1-10 Rocket 4.4 20:08:05 10° N 20:13:42 79° E 20:19:30 10° S
ARIANE 5 R/B 2.9 20:10:25 10° NNE 20:15:29 70° ESE 20:20:41 10° S
Intelsat 5-1 Rocket 4.1 20:12:21 10° NW 20:15:49 34° NNE 20:23:17 10° E
Cosmos 2227 4.2 20:10:44 10° NNW 20:16:18 64° WSW 20:21:55 10° SSE
Cosmos 1634 Rocket 4.0 20:12:11 10° NNW 20:18:22 72° W 20:24:36 10° S
UNK 4.2 20:14:30 10° S 20:18:43 38° WSW 20:22:54 10° NW
Cosmos 1536 3.7 20:19:45 10° SW 20:22:49 25° W 20:25:52 10° NNW
ATLAS 2AS CENTAUR R/B 3.0 20:16:14 10° SW 20:23:29 62° WNW 20:30:33 10° NNE
Resurs 1-3 3.6 20:26:47 10° N 20:31:05 85° W 20:35:28 10° SSW
SJ-6F 4.5 20:30:06 10° NNE 20:34:10 87° ESE 20:38:17 10° S
Cosmos 2208 Rocket 4.2 20:29:27 10° NNW 20:34:47 60° WSW 20:40:12 10° S
